Hourly Weather Ottal

Today, 24 July, Saturday

Time Temperature Precipitation Wind Pressure Humidity
00:00 +14°C° 0 mm 1 mps 594 mmHg 78%
01:00 +14°C° 0.1 mm 1 mps 594 mmHg 78%
02:00 +14°C° 0.1 mm 1 mps 594 mmHg 79%
03:00 +14°C° 0 mm 1 mps 594 mmHg 78%
04:00 +14°C° 0.2 mm 1 mps 594 mmHg 78%
05:00 +14°C° 0.2 mm 1 mps 595 mmHg 78%
06:00 +15°C° 0.2 mm 1 mps 595 mmHg 78%
07:00 +15°C° 0.5 mm 1 mps 595 mmHg 80%
08:00 +15°C° 0.5 mm 1 mps 595 mmHg 82%
09:00 +15°C° 0 mm 1 mps 595 mmHg 84%
10:00 +15°C° 0.8 mm 1 mps 595 mmHg 83%
11:00 +16°C° 0.8 mm 1 mps 596 mmHg 82%
12:00 +16°C° 0.8 mm 1 mps 596 mmHg 80%
13:00 +16°C° 0.5 mm 1 mps 596 mmHg 82%
14:00 +18°C° 0.5 mm 1 mps 596 mmHg 83%
15:00 +18°C° 0.5 mm 1 mps 596 mmHg 84%
16:00 +18°C° 0.2 mm 1 mps 597 mmHg 84%
17:00 +18°C° 0.2 mm 1 mps 597 mmHg 83%
18:00 +18°C° 0.2 mm 1 mps 597 mmHg 83%
19:00 +18°C° 0.3 mm 1 mps 597 mmHg 85%
20:00 +16°C° 0.3 mm 1 mps 597 mmHg 88%
21:00 +16°C° 0.3 mm 1 mps 598 mmHg 90%
22:00 +15°C° 0.2 mm 1 mps 597 mmHg 91%
23:00 +15°C° 0.2 mm 1 mps 597 mmHg 92%

Tomorrow, 25 July, Sunday

Time Temperature Precipitation Wind Pressure Humidity
00:00 +14°C° 0.2 mm 0 mps 597 mmHg 93%
01:00 +13°C° 0.1 mm 0 mps 597 mmHg 93%
02:00 +14°C° 0.1 mm 1 mps 597 mmHg 92%
03:00 +14°C° 0.1 mm 1 mps 597 mmHg 91%
04:00 +14°C° 0.1 mm 1 mps 598 mmHg 90%
05:00 +14°C° 0.1 mm 0 mps 598 mmHg 89%
06:00 +14°C° 0.1 mm 0 mps 598 mmHg 88%
07:00 +16°C° 0.1 mm 1 mps 599 mmHg 85%
08:00 +18°C° 0.1 mm 1 mps 599 mmHg 82%
09:00 +19°C° 0.1 mm 1 mps 599 mmHg 80%
10:00 +18°C° 0.2 mm 2 mps 600 mmHg 78%
11:00 +19°C° 0.2 mm 2 mps 600 mmHg 77%
12:00 +19°C° 0.2 mm 2 mps 600 mmHg 76%
13:00 +19°C° 0.1 mm 2 mps 600 mmHg 75%
14:00 +20°C° 0.1 mm 2 mps 600 mmHg 74%
15:00 +21°C° 0.1 mm 1 mps 600 mmHg 73%
16:00 +21°C° 0 mm 1 mps 600 mmHg 73%
17:00 +20°C° 0 mm 1 mps 600 mmHg 73%
18:00 +20°C° 0 mm 1 mps 600 mmHg 74%
19:00 +19°C° 0 mm 1 mps 600 mmHg 76%
20:00 +18°C° 0 mm 1 mps 600 mmHg 79%
21:00 +15°C° 0 mm 1 mps 600 mmHg 82%
22:00 +15°C° 0 mm 2 mps 599 mmHg 82%
23:00 +15°C° 0 mm 2 mps 599 mmHg 82%

Day after tomorrow, 26 July, Monday

Time Temperature Precipitation Wind Pressure Humidity
00:00 +15°C° 0 mm 2 mps 599 mmHg 82%
01:00 +14°C° 0 mm 2 mps 599 mmHg 81%
02:00 +14°C° 0 mm 1 mps 599 mmHg 80%
03:00 +14°C° 0 mm 1 mps 599 mmHg 79%
04:00 +15°C° 0 mm 1 mps 599 mmHg 78%
05:00 +16°C° 0 mm 1 mps 600 mmHg 76%
06:00 +18°C° 0 mm 1 mps 600 mmHg 75%
07:00 +19°C° 0 mm 1 mps 601 mmHg 71%
08:00 +20°C° 0 mm 2 mps 601 mmHg 66%
09:00 +21°C° 0 mm 2 mps 602 mmHg 62%
10:00 +23°C° 0.2 mm 2 mps 602 mmHg 61%
11:00 +24°C° 0.2 mm 2 mps 602 mmHg 59%
12:00 +24°C° 0.2 mm 3 mps 602 mmHg 58%
13:00 +24°C° 0.3 mm 2 mps 602 mmHg 57%
14:00 +25°C° 0.3 mm 2 mps 602 mmHg 57%
15:00 +25°C° 0.3 mm 2 mps 602 mmHg 56%
16:00 +24°C° 0.2 mm 2 mps 601 mmHg 59%
17:00 +23°C° 0.2 mm 2 mps 601 mmHg 61%
18:00 +23°C° 0.2 mm 1 mps 601 mmHg 64%
19:00 +21°C° 0.1 mm 1 mps 600 mmHg 69%
20:00 +18°C° 0.1 mm 2 mps 600 mmHg 74%
21:00 +16°C° 0.1 mm 2 mps 599 mmHg 79%
22:00 +16°C° 0.1 mm 1 mps 599 mmHg 79%
23:00 +16°C° 0.1 mm 1 mps 599 mmHg 80%

27 July, Tuesday

Time Temperature Precipitation Wind Pressure Humidity
00:00 +15°C° 0.1 mm 1 mps 599 mmHg 81%
01:00 +15°C° 0.1 mm 1 mps 599 mmHg 81%
02:00 +15°C° 0.1 mm 2 mps 598 mmHg 82%
03:00 +15°C° 0.1 mm 2 mps 598 mmHg 82%
04:00 +15°C° 0.2 mm 1 mps 599 mmHg 80%
05:00 +16°C° 0.2 mm 1 mps 599 mmHg 79%
06:00 +18°C° 0.2 mm 1 mps 599 mmHg 77%
07:00 +19°C° 0.4 mm 1 mps 599 mmHg 74%
08:00 +19°C° 0.4 mm 2 mps 599 mmHg 71%
09:00 +20°C° 0.4 mm 2 mps 600 mmHg 68%
10:00 +21°C° 0.7 mm 3 mps 600 mmHg 65%
11:00 +21°C° 0.7 mm 3 mps 600 mmHg 62%
12:00 +22°C° 0.7 mm 3 mps 600 mmHg 60%
13:00 +22°C° 0.5 mm 3 mps 599 mmHg 59%
14:00 +23°C° 0.5 mm 2 mps 599 mmHg 58%
15:00 +24°C° 0.5 mm 2 mps 599 mmHg 56%
16:00 +21°C° 0.9 mm 2 mps 599 mmHg 62%
17:00 +20°C° 0.9 mm 2 mps 598 mmHg 68%
18:00 +19°C° 0.9 mm 3 mps 598 mmHg 74%
19:00 +18°C° 2.2 mm 2 mps 598 mmHg 78%
20:00 +17°C° 2.2 mm 2 mps 598 mmHg 82%
21:00 +16°C° 2.2 mm 2 mps 597 mmHg 86%
22:00 +15°C° 1 mm 2 mps 597 mmHg 87%
23:00 +15°C° 1 mm 1 mps 597 mmHg 88%

28 July, Wednesday

Time Temperature Precipitation Wind Pressure Humidity
00:00 +15°C° 1 mm 1 mps 597 mmHg 89%
01:00 +15°C° 0.9 mm 1 mps 597 mmHg 90%
02:00 +14°C° 0.9 mm 1 mps 596 mmHg 91%
03:00 +14°C° 0.9 mm 1 mps 596 mmHg 91%
04:00 +14°C° 0.9 mm 1 mps 596 mmHg 91%
05:00 +14°C° 0.9 mm 1 mps 596 mmHg 91%
06:00 +14°C° 0.9 mm 1 mps 596 mmHg 91%
07:00 +13°C° 1.4 mm 1 mps 596 mmHg 92%
08:00 +13°C° 1.4 mm 1 mps 596 mmHg 93%
09:00 +12°C° 1.4 mm 1 mps 596 mmHg 93%
10:00 +12°C° 1.8 mm 1 mps 596 mmHg 93%
11:00 +12°C° 1.8 mm 1 mps 596 mmHg 92%
12:00 +12°C° 1.8 mm 1 mps 596 mmHg 92%
13:00 +12°C° 1.4 mm 1 mps 596 mmHg 91%
14:00 +12°C° 1.4 mm 2 mps 596 mmHg 90%
15:00 +10°C° 1.4 mm 2 mps 596 mmHg 89%
16:00 +10°C° 0.7 mm 2 mps 596 mmHg 89%
17:00 +10°C° 0.7 mm 2 mps 596 mmHg 89%
18:00 +10°C° 0.7 mm 2 mps 596 mmHg 88%
19:00 +10°C° 0.5 mm 2 mps 596 mmHg 88%
20:00 +10°C° 0.5 mm 2 mps 597 mmHg 87%
21:00 +9°C° 0.5 mm 2 mps 597 mmHg 87%
22:00 +9°C° 0.3 mm 2 mps 597 mmHg 87%
23:00 +9°C° 0.3 mm 2 mps 597 mmHg 86%

29 July, Thursday

Time Temperature Precipitation Wind Pressure Humidity
00:00 +9°C° 0.3 mm 2 mps 597 mmHg 86%
01:00 +9°C° 0.1 mm 2 mps 597 mmHg 84%
02:00 +9°C° 0.1 mm 2 mps 597 mmHg 82%
03:00 +10°C° 0.1 mm 1 mps 597 mmHg 80%
04:00 +10°C° 0 mm 1 mps 597 mmHg 78%
05:00 +10°C° 0 mm 1 mps 597 mmHg 76%
06:00 +10°C° 0 mm 1 mps 597 mmHg 74%
07:00 +12°C° 0 mm 1 mps 597 mmHg 71%
08:00 +13°C° 0 mm 2 mps 598 mmHg 68%
09:00 +14°C° 0 mm 2 mps 598 mmHg 64%
10:00 +15°C° 0 mm 2 mps 599 mmHg 65%
11:00 +15°C° 0 mm 2 mps 599 mmHg 66%
12:00 +16°C° 0 mm 3 mps 599 mmHg 66%
13:00 +16°C° 0.1 mm 2 mps 599 mmHg 67%
14:00 +16°C° 0.1 mm 2 mps 599 mmHg 68%
15:00 +16°C° 0.1 mm 1 mps 598 mmHg 69%
16:00 +15°C° 0 mm 1 mps 598 mmHg 72%
17:00 +15°C° 0 mm 1 mps 598 mmHg 74%
18:00 +15°C° 0 mm 1 mps 598 mmHg 77%
19:00 +14°C° 0 mm 1 mps 598 mmHg 79%
20:00 +13°C° 0 mm 1 mps 598 mmHg 82%
21:00 +12°C° 0 mm 1 mps 598 mmHg 85%
22:00 +12°C° 0 mm 1 mps 598 mmHg 83%
23:00 +12°C° 0 mm 1 mps 598 mmHg 82%
Show more